TimeMST,TemperatureF,Dew PointF,Humidity,Sea Level PressureIn,VisibilityMPH,Wind Direction,Wind SpeedMPH,Gust SpeedMPH,PrecipitationIn,Events,Conditions,WindDirDegrees,DateUTC
12:15 AM,10.4,-2.2,57,30.14,10.0,North,6.9,-,N/A,,Clear,350,2012-12-13 07:15:00
12:35 AM,12.2,3.2,67,30.14,10.0,North,5.8,-,N/A,,Clear,360,2012-12-13 07:35:00
12:55 AM,14.0,1.4,57,30.14,10.0,North,5.8,-,N/A,,Clear,10,2012-12-13 07:55:00
1:15 AM,12.2,1.4,62,30.13,10.0,North,8.1,-,N/A,,Clear,10,2012-12-13 08:15:00
1:35 AM,14.0,3.2,62,30.14,10.0,North,6.9,-,N/A,,Clear,10,2012-12-13 08:35:00
1:55 AM,12.2,1.4,62,30.14,10.0,North,5.8,-,N/A,,Clear,10,2012-12-13 08:55:00
2:15 AM,12.2,1.4,62,30.14,10.0,North,3.5,-,N/A,,Clear,360,2012-12-13 09:15:00
2:35 AM,12.2,3.2,67,30.14,10.0,NNE,6.9,-,N/A,,Clear,20,2012-12-13 09:35:00
2:55 AM,12.2,3.2,67,30.14,10.0,North,8.1,-,N/A,,Clear,10,2012-12-13 09:55:00
3:15 AM,12.2,3.2,67,30.13,10.0,North,8.1,-,N/A,,Clear,10,2012-12-13 10:15:00
3:35 AM,10.4,1.4,67,30.13,10.0,North,8.1,-,N/A,,Clear,360,2012-12-13 10:35:00
3:55 AM,8.6,-0.4,67,30.13,10.0,North,9.2,-,N/A,,Clear,10,2012-12-13 10:55:00
4:15 AM,10.4,1.4,67,30.13,10.0,North,8.1,-,N/A,,Clear,10,2012-12-13 11:15:00
4:35 AM,10.4,1.4,67,30.13,10.0,NNE,9.2,-,N/A,,Clear,20,2012-12-13 11:35:00
4:55 AM,10.4,3.2,73,30.14,10.0,ENE,5.8,-,N/A,,Clear,60,2012-12-13 11:55:00
5:15 AM,12.2,5.0,73,30.13,10.0,Calm,Calm,-,N/A,,Clear,0,2012-12-13 12:15:00
5:35 AM,10.4,1.4,67,30.14,10.0,North,8.1,-,N/A,,Clear,360,2012-12-13 12:35:00
5:55 AM,8.6,-0.4,67,30.15,10.0,North,8.1,-,N/A,,Clear,10,2012-12-13 12:55:00
6:15 AM,10.4,1.4,67,30.15,10.0,NNE,8.1,-,N/A,,Clear,20,2012-12-13 13:15:00
6:35 AM,10.4,1.4,67,30.14,10.0,NNE,9.2,-,N/A,,Clear,20,2012-12-13 13:35:00
6:55 AM,10.4,1.4,67,30.15,10.0,North,10.4,-,N/A,,Clear,10,2012-12-13 13:55:00
7:15 AM,10.4,1.4,67,30.16,10.0,North,8.1,-,N/A,,Clear,10,2012-12-13 14:15:00
7:35 AM,10.4,3.2,73,30.17,10.0,NNE,8.1,-,N/A,,Clear,20,2012-12-13 14:35:00
7:55 AM,15.8,6.8,68,30.17,10.0,NNE,5.8,-,N/A,,Clear,30,2012-12-13 14:55:00
8:15 AM,17.6,6.8,63,30.18,10.0,North,5.8,-,N/A,,Clear,350,2012-12-13 15:15:00
8:35 AM,21.2,8.6,58,30.18,10.0,North,4.6,-,N/A,,Clear,350,2012-12-13 15:35:00
8:55 AM,24.8,8.6,50,30.18,10.0,North,3.5,-,N/A,,Clear,350,2012-12-13 15:55:00
9:15 AM,26.6,10.4,51,30.18,10.0,North,3.5,-,N/A,,Clear,350,2012-12-13 16:15:00
9:35 AM,30.2,12.2,47,30.18,10.0,NNW,3.5,-,N/A,,Clear,330,2012-12-13 16:35:00
9:55 AM,33.8,10.4,38,30.18,10.0,NW,3.5,-,N/A,,Clear,320,2012-12-13 16:55:00
10:15 AM,35.6,12.2,38,30.17,10.0,Calm,Calm,-,N/A,,Clear,0,2012-12-13 17:15:00
10:35 AM,37.4,12.2,36,30.16,10.0,Calm,Calm,-,N/A,,Clear,0,2012-12-13 17:35:00
10:55 AM,41.0,14.0,33,30.15,10.0,Calm,Calm,-,N/A,,Clear,0,2012-12-13 17:55:00
11:15 AM,42.8,12.2,29,30.13,10.0,Calm,Calm,-,N/A,,Clear,0,2012-12-13 18:15:00
11:35 AM,44.6,12.2,27,30.12,10.0,WNW,3.5,-,N/A,,Clear,300,2012-12-13 18:35:00
11:55 AM,46.4,12.2,25,30.11,10.0,West,3.5,-,N/A,,Clear,260,2012-12-13 18:55:00
12:15 PM,48.2,12.2,24,30.10,10.0,WNW,4.6,-,N/A,,Clear,290,2012-12-13 19:15:00
12:35 PM,48.2,8.6,20,30.08,10.0,Calm,Calm,-,N/A,,Clear,0,2012-12-13 19:35:00
12:55 PM,48.2,10.4,22,30.07,10.0,WSW,4.6,-,N/A,,Clear,250,2012-12-13 19:55:00
1:15 PM,48.2,8.6,20,30.08,10.0,Calm,Calm,-,N/A,,Clear,0,2012-12-13 20:15:00
1:35 PM,48.2,8.6,20,30.07,10.0,WSW,6.9,-,N/A,,Clear,250,2012-12-13 20:35:00
1:55 PM,48.2,8.6,20,30.06,10.0,WSW,6.9,-,N/A,,Clear,240,2012-12-13 20:55:00
2:15 PM,48.2,8.6,20,30.05,10.0,Calm,Calm,-,N/A,,Clear,0,2012-12-13 21:15:00
2:35 PM,48.2,8.6,20,30.05,10.0,SW,8.1,-,N/A,,Clear,230,2012-12-13 21:35:00
2:55 PM,48.2,10.4,22,30.04,10.0,SW,10.4,-,N/A,,Clear,230,2012-12-13 21:55:00
3:15 PM,48.2,8.6,20,30.04,10.0,SSW,9.2,-,N/A,,Clear,210,2012-12-13 22:15:00
3:35 PM,46.4,8.6,22,30.04,10.0,SW,10.4,-,N/A,,Clear,220,2012-12-13 22:35:00
6:15 PM,26.6,3.2,37,30.06,10.0,East,9.2,-,N/A,,Clear,80,2012-12-14 01:15:00
6:35 PM,26.6,6.8,43,30.06,10.0,East,9.2,-,N/A,,Clear,80,2012-12-14 01:35:00
6:55 PM,26.6,8.6,47,30.05,10.0,ENE,6.9,-,N/A,,Clear,60,2012-12-14 01:55:00
7:15 PM,24.8,6.8,46,30.05,10.0,East,3.5,-,N/A,,Clear,80,2012-12-14 02:15:00
7:35 PM,24.8,6.8,46,30.05,10.0,ENE,5.8,-,N/A,,Clear,70,2012-12-14 02:35:00
7:55 PM,23.0,6.8,50,30.06,10.0,SE,3.5,-,N/A,,Clear,130,2012-12-14 02:55:00
8:15 PM,21.2,8.6,58,30.05,10.0,East,3.5,-,N/A,,Clear,80,2012-12-14 03:15:00
8:35 PM,21.2,6.8,54,30.05,10.0,NNE,3.5,-,N/A,,Clear,30,2012-12-14 03:35:00
8:55 PM,21.2,5.0,50,30.05,10.0,North,6.9,-,N/A,,Clear,360,2012-12-14 03:55:00
9:15 PM,21.2,3.2,46,30.05,10.0,North,4.6,-,N/A,,Clear,350,2012-12-14 04:15:00
9:35 PM,24.8,6.8,46,30.04,10.0,North,4.6,-,N/A,,Clear,10,2012-12-14 04:35:00
9:55 PM,21.2,5.0,50,30.03,10.0,NNE,6.9,-,N/A,,Clear,20,2012-12-14 04:55:00
10:15 PM,21.2,3.2,46,30.03,10.0,North,9.2,-,N/A,,Clear,10,2012-12-14 05:15:00
10:35 PM,19.4,3.2,49,30.03,10.0,North,5.8,-,N/A,,Clear,360,2012-12-14 05:35:00
10:55 PM,19.4,3.2,49,30.02,10.0,NNE,9.2,-,N/A,,Clear,30,2012-12-14 05:55:00
11:15 PM,17.6,5.0,58,30.01,10.0,North,6.9,-,N/A,,Clear,360,2012-12-14 06:15:00
11:35 PM,15.8,1.4,53,30.01,10.0,NNW,5.8,-,N/A,,Clear,340,2012-12-14 06:35:00
11:55 PM,15.8,3.2,58,30.00,10.0,North,6.9,-,N/A,,Clear,10,2012-12-14 06:55:00